Lapse_Rate
9.4 9.2 8.9 8.6 8.7 8.3 8.5 8.5 8.4 8.3 7.9 7.3 6.4 6.4 5.9 5.8 5.4 5.2 5.5 5.7 6.4 6.2 6.3 5.9 5.8 6.0 5.5 5.5 5.5 5.3 5.1 4.6 4.9 5.1 5.0 4.9 5.0 5.4 5.6 5.8 5.8 5.7 5.5 5.4
9.0 9.2 8.9 8.9 8.7 8.7 8.4 8.1 7.8 7.4 7.4 7.2 6.8 6.6 6.2 6.1 5.5 5.2 5.4 5.5 6.1 6.6 6.3 6.0 5.9 5.7 5.3 5.5 5.1 4.9 4.8 4.8 5.0 5.2 5.4 5.5 5.6 5.9 6.0 5.9 5.8 5.4 5.4 5.5
9.2 8.9 9.0 8.8 9.0 8.9 8.5 8.5 8.7 8.3 7.1 6.3 6.9 6.6 6.0 6.0 5.7 5.7 6.2 6.2 6.1 6.1 5.7 5.8 5.9 5.6 5.4 5.3 5.1 5.0 4.9 4.8 5.2 5.6 5.7 5.7 5.6 5.6 5.7 5.3 5.2 5.2 5.5 5.8
9.2 9.2 9.0 8.6 8.4 8.3 8.1 8.3 8.8 8.1 7.8 6.8 7.1 6.0 6.1 5.6 5.6 5.7 5.6 6.0 6.6 6.3 5.9 6.0 5.6 5.6 5.7 5.3 5.2 5.2 5.1 5.2 5.8 5.9 5.9 5.9 6.1 6.1 5.8 5.4 5.3 5.5 5.8 6.0
9.0 8.4 8.4 8.3 8.0 8.0 8.3 8.7 8.0 8.3 7.5 7.5 7.3 6.7 5.9 5.6 6.0 5.9 6.0 6.0 6.4 6.1 6.0 6.0 6.4 5.8 6.0 5.5 5.5 5.4 5.5 5.8 5.9 5.9 5.9 5.9 5.8 5.7 5.5 5.5 5.4 5.6 5.9 6.2
8.7 8.8 8.5 8.2 8.3 8.4 8.0 8.5 8.6 8.4 8.1 6.4 6.5 6.2 5.9 6.3 6.5 6.3 6.0 6.2 6.2 6.0 6.1 5.9 5.7 6.0 5.6 5.7 5.3 5.4 5.2 5.6 5.7 5.8 5.9 5.7 5.6 5.3 5.4 5.4 5.5 5.8 5.9 6.3
8.7 8.7 8.7 8.0 7.8 8.1 7.9 8.5 8.6 7.9 6.0 5.8 5.8 6.0 5.6 6.1 6.5 6.2 6.1 6.1 6.4 6.3 6.0 6.0 6.3 6.1 6.0 5.6 5.5 5.3 5.2 5.6 5.7 5.8 5.7 5.5 5.3 5.4 5.4 5.6 5.6 5.9 5.9 6.3
8.6 8.4 8.2 7.3 7.5 7.8 7.9 8.2 8.4 7.8 5.9 5.6 5.9 5.7 5.9 6.3 6.3 6.2 6.2 6.1 6.2 6.2 6.2 6.3 6.2 6.0 5.8 5.6 5.3 5.2 5.3 5.8 5.8 5.7 5.7 5.7 5.5 5.5 5.5 5.6 5.6 6.0 6.2 6.6
8.1 7.7 7.6 7.3 7.6 7.9 7.9 8.0 8.1 7.4 6.5 5.9 5.8 5.7 5.9 6.0 6.3 6.2 6.2 6.1 6.1 6.3 6.1 6.1 5.8 5.8 5.6 5.6 5.3 5.0 5.4 5.8 5.8 5.8 5.8 5.6 5.6 5.4 5.5 5.6 5.7 6.1 6.3 6.6
7.9 7.7 7.1 7.3 7.5 7.4 7.4 7.5 7.7 7.6 5.8 5.7 5.5 5.7 6.0 6.2 6.3 6.2 6.1 6.1 6.2 6.1 6.0 5.9 5.8 5.7 5.8 5.5 5.5 5.5 6.1 6.1 5.9 6.0 6.0 5.6 5.6 5.4 5.6 5.6 5.6 6.0 6.3 6.5
7.3 7.1 6.4 7.3 6.4 6.6 7.0 6.9 6.9 6.7 6.2 5.4 5.8 5.3 6.0 6.4 6.4 6.3 6.1 5.9 6.0 5.9 5.7 5.8 5.9 5.8 5.7 5.4 5.3 5.6 6.1 6.0 5.9 6.1 5.7 5.4 5.5 5.5 5.7 5.6 5.6 5.8 6.2 6.5
7.0 6.5 5.7 6.1 6.1 5.9 5.9 6.2 6.4 6.6 6.1 5.9 5.9 5.9 6.1 6.4 6.5 6.5 6.2 6.0 6.0 6.0 6.1 6.1 6.0 6.1 5.8 5.6 5.4 5.3 5.6 5.9 5.8 5.9 5.6 5.2 5.3 5.3 5.6 5.6 5.7 5.8 6.0 6.4
7.1 6.5 5.7 6.1 6.3 5.9 6.1 6.3 6.3 6.4 6.6 6.2 5.9 6.0 6.2 6.3 6.3 6.1 6.1 6.1 6.2 6.2 5.9 5.9 5.8 5.8 5.8 5.7 5.2 5.2 5.5 5.8 5.9 6.1 5.1 4.9 5.3 5.3 5.6 5.6 5.6 5.8 5.9 6.0
7.2 6.9 6.6 6.0 6.1 6.2 6.3 6.4 6.4 6.4 6.3 6.2 6.2 6.4 6.3 6.4 6.3 6.4 6.5 6.4 6.2 5.8 5.7 5.8 5.8 5.9 5.9 5.7 5.5 5.5 5.6 5.7 5.8 5.7 4.9 4.7 5.0 5.4 5.7 5.8 5.6 5.3 5.7 6.0
6.8 6.3 6.3 6.1 6.2 6.1 6.3 6.5 6.6 6.2 6.1 6.0 5.9 6.0 6.0 6.3 6.4 6.5 6.4 6.2 6.1 6.1 5.9 6.1 5.9 5.8 5.8 5.8 5.5 5.4 5.6 5.8 5.7 5.6 4.6 4.7 4.7 4.9 5.2 5.8 5.3 5.5 5.4 5.6
6.4 6.2 6.2 6.1 6.4 6.6 6.0 6.2 6.5 6.7 6.3 6.3 6.5 6.4 5.9 5.9 6.3 6.6 6.6 6.6 6.8 6.4 6.2 6.1 6.1 5.9 6.0 6.1 6.0 5.7 5.8 5.8 5.9 5.5 5.0 4.6 4.8 4.7 4.8 5.6 5.5 5.5 5.4 5.4
6.5 6.4 6.5 6.3 6.3 6.5 6.3 6.1 6.3 6.1 6.2 6.2 6.3 6.0 6.0 6.0 5.8 6.1 6.3 6.3 6.4 6.5 6.1 6.2 6.4 6.2 6.0 6.1 6.2 6.1 5.9 6.0 6.0 5.8 5.1 4.7 4.9 4.5 4.7 5.3 5.5 5.5 5.5 5.5
6.8 6.8 6.5 6.3 6.5 5.6 5.8 6.2 6.0 6.0 5.9 5.9 6.1 6.2 6.3 6.3 5.9 6.0 6.1 6.5 6.6 6.4 6.4 6.2 6.2 6.3 6.1 5.8 5.9 6.0 6.0 6.0 6.0 5.7 5.2 4.8 4.8 4.6 4.7 4.7 5.4 5.6 5.6 5.6
6.8 6.7 6.5 6.4 6.5 6.3 6.6 6.7 6.5 6.3 5.8 5.9 6.0 6.0 6.2 6.5 6.7 6.7 6.7 6.6 6.3 6.2 6.4 6.5 6.3 6.2 6.2 6.1 5.7 5.8 5.6 5.7 5.9 5.9 5.0 5.3 4.7 4.9 4.8 4.9 5.4 5.4 5.5 5.6
6.8 6.9 6.9 6.5 6.0 6.2 5.6 6.4 6.5 6.5 6.1 6.1 6.0 5.9 5.8 5.7 5.9 5.6 5.7 6.3 6.4 6.6 6.4 6.4 6.2 6.2 6.7 6.1 6.4 6.4 5.8 6.0 5.8 5.8 5.1 5.3 5.3 5.1 5.4 5.0 5.1 5.3 5.4 5.4
6.9 6.5 6.6 6.5 6.2 5.8 6.0 6.7 6.6 6.6 6.0 5.9 5.8 5.7 5.6 5.5 5.3 5.4 5.7 6.2 6.2 6.1 6.2 6.5 6.4 6.5 6.5 6.6 6.5 6.4 6.2 5.7 5.6 5.5 5.2 5.0 5.3 5.4 5.2 4.9 5.2 5.4 5.6 5.7
6.6 6.4 6.4 6.3 6.1 5.8 6.0 6.0 6.0 5.5 5.4 5.4 5.7 5.6 5.5 5.6 5.8 6.1 6.3 6.2 6.2 6.1 6.2 6.4 6.6 6.6 6.7 6.8 6.9 6.5 6.1 6.0 6.0 5.8 5.8 5.1 5.7 5.5 5.5 4.7 4.8 5.1 5.6 5.5
6.6 6.4 6.4 6.4 6.1 5.8 5.4 5.5 5.4 5.5 5.5 5.6 5.4 5.5 5.7 5.8 5.8 5.9 5.9 6.1 6.2 6.3 6.1 6.2 6.1 6.5 6.6 6.7 6.9 6.8 6.5 6.4 6.0 6.0 6.2 5.4 5.1 5.6 5.6 5.5 5.5 5.5 5.3 5.1
6.3 6.2 6.2 5.9 5.5 5.3 5.3 5.4 5.6 5.3 5.5 5.8 5.4 5.4 5.6 5.6 5.7 5.9 5.8 6.0 6.0 6.3 6.1 6.1 6.1 6.2 6.5 6.7 6.8 6.8 6.9 6.6 6.2 6.1 6.1 5.8 5.4 5.6 5.8 5.9 5.7 5.6 5.5 5.3
6.2 6.1 6.0 5.7 5.2 5.1 5.1 5.0 5.1 5.5 5.6 5.6 5.7 5.6 5.7 5.9 6.1 6.0 5.8 5.8 6.0 6.2 6.4 6.2 6.3 6.4 6.3 6.4 6.6 6.7 6.8 6.6 6.3 6.2 6.1 6.1 5.8 5.8 5.7 5.9 6.0 5.7 5.4 5.4
6.5 6.0 5.9 5.7 5.4 5.1 5.2 5.2 5.4 5.8 5.8 5.8 5.8 6.0 6.1 6.1 6.1 5.8 5.5 5.9 6.0 5.8 5.9 6.1 6.4 6.4 6.6 6.3 6.3 6.4 6.5 6.5 6.7 6.3 6.1 6.1 6.1 6.1 6.0 6.0 6.1 6.0 5.5 5.4
Wind_Speed
4 7 4 7 7 6 6 4 6 7 2 10 7 7 5 1 7 13 5 14 7 2 4 10 7 7 6 5 5 5 4 1 2 2 2 3 3 3 2 6 9 8 9 10
5 4 1 9 10 8 5 3 1 11 14 12 8 6 6 11 8 16 16 14 10 6 6 7 7 6 6 6 5 5 3 0 1 1 2 1 2 3 3 7 10 10 9 8
5 2 4 6 4 6 5 3 2 4 13 19 7 9 4 8 10 8 11 11 7 7 6 7 7 5 6 7 6 6 5 4 2 3 2 3 3 3 3 4 4 9 10 10
1 3 4 4 4 2 3 4 5 18 7 4 2 4 5 5 6 7 7 4 5 8 10 8 6 6 7 5 6 7 6 4 3 2 2 2 1 2 2 3 3 7 9 11
3 3 4 2 4 4 6 3 6 18 11 5 7 5 3 4 3 9 10 6 5 6 5 8 6 7 3 8 7 7 5 2 2 2 2 2 3 2 3 3 6 5 8 8
4 1 3 2 5 3 3 3 13 6 5 5 6 2 3 2 6 4 6 7 6 9 7 7 6 7 5 6 7 4 2 2 3 2 3 2 4 5 3 4 4 4 3 5
3 4 2 3 7 6 11 6 3 4 5 2 7 4 4 5 3 5 7 8 8 5 8 8 6 7 7 7 4 4 4 2 4 3 3 5 6 4 3 4 3 5 3 3
3 7 6 6 1 2 4 3 5 1 4 2 6 3 5 2 6 6 6 3 8 7 3 3 8 6 7 8 6 4 2 1 5 5 5 4 5 3 3 3 3 3 2 4
3 5 5 13 16 5 6 4 1 7 4 4 2 3 7 5 3 4 4 7 8 4 7 9 8 5 7 6 5 6 3 4 6 5 5 5 3 4 3 5 3 2 4 3
2 4 9 5 7 9 5 4 5 4 4 3 2 2 3 6 4 5 6 6 6 8 6 6 6 7 5 6 6 5 4 5 4 5 2 2 4 3 3 3 4 3 4 4
3 4 6 9 6 5 6 5 5 5 4 4 4 2 5 3 0 4 2 6 9 7 8 7 6 6 7 4 4 4 5 3 3 3 2 2 4 3 3 2 3 2 3 4
3 5 5 11 5 5 2 4 4 4 1 3 4 1 3 0 5 6 2 6 5 9 7 7 8 7 7 6 6 6 4 5 4 3 1 2 4 4 4 3 4 4 3 3
3 2 4 5 6 8 7 10 5 5 3 3 4 0 4 4 4 3 2 4 5 5 7 5 4 6 7 6 6 5 6 5 5 3 2 3 4 4 5 6 5 4 5 4
9 5 5 4 5 2 6 12 13 7 6 4 3 3 7 6 3 2 6 4 3 3 3 5 6 7 7 7 7 6 6 4 4 5 4 4 5 5 6 5 5 3 4 4
6 5 8 5 4 10 7 11 14 12 5 6 5 7 6 9 4 3 2 5 6 6 2 2 5 7 7 7 6 6 6 5 4 6 4 5 6 5 4 4 5 4 2 4
5 2 3 5 10 14 9 11 12 11 8 7 5 7 6 8 6 12 13 12 12 8 3 4 7 8 8 8 7 6 6 5 3 4 5 6 6 5 6 4 4 3 3 3
4 4 3 1 2 3 9 8 11 10 11 3 6 3 5 14 11 7 9 9 11 11 16 9 4 8 8 8 8 8 7 4 4 5 5 5 5 4 5 5 4 5 4 2
5 3 3 2 3 4 6 12 17 15 7 5 6 8 7 2 3 3 6 5 8 10 10 12 7 6 8 5 7 6 6 6 5 5 5 5 6 5 4 2 2 3 3 4
4 4 3 3 2 3 6 8 7 2 9 9 9 9 9 9 6 5 10 6 6 6 7 5 4 1 4 7 8 6 7 6 5 6 5 5 5 5 4 4 3 3 3 3
7 6 5 3 4 2 2 12 16 4 4 6 6 6 6 7 5 4 8 8 8 8 7 6 7 6 6 9 9 6 8 5 7 6 6 4 4 5 6 4 5 3 3 5
4 4 4 2 3 3 7 11 4 6 4 5 5 4 4 3 3 5 7 7 6 5 8 8 8 7 10 8 5 6 9 8 8 6 5 6 5 6 7 5 3 3 5 5
2 2 2 3 3 3 5 3 5 4 3 2 3 1 1 2 5 5 6 7 8 8 7 8 7 8 10 10 5 8 8 9 6 6 6 7 6 5 4 5 4 4 4 5
3 1 4 2 4 3 2 6 4 4 3 2 2 3 3 4 3 5 5 7 7 8 8 6 6 8 8 10 7 9 10 7 5 7 7 6 7 5 5 5 5 3 4 4
3 2 4 3 0 5 4 3 5 5 3 3 3 3 5 4 5 4 5 6 6 6 6 6 7 7 7 7 10 9 10 7 6 7 9 6 5 6 5 3 4 4 4 4
2 3 4 3 2 2 2 2 4 3 4 1 1 2 3 2 2 2 5 5 6 6 5 5 6 6 6 6 7 6 8 6 4 6 7 8 5 6 5 5 5 5 6 6
1 3 3 3 5 5 4 3 5 4 5 5 4 5 6 4 5 5 5 5 4 7 4 6 7 7 7 6 6 6 6 5 5 4 5 6 6 5 4 3 4 8 11 11
Wind_Direction
8 78 86 175 164 264 185 213 221 75 11 59 110 167 208 302 264 222 200 100 166 223 150 154 152 133 138 136 150 134 114 334 5 343 333 340 332 327 332 345 346 347 345 338
15 160 172 97 143 150 198 184 327 87 110 85 113 99 32 45 46 97 106 164 174 171 178 164 164 162 159 174 187 134 126 242 321 318 291 263 271 286 286 322 329 333 328 330
169 37 158 144 137 131 224 170 146 143 95 130 93 56 31 78 97 120 156 159 175 169 172 195 191 171 170 199 164 156 177 208 232 265 293 330 359 348 346 342 318 328 317 312
86 276 106 62 64 79 330 250 253 130 117 172 198 142 29 109 122 151 188 197 217 194 183 214 211 171 195 197 180 163 203 211 240 315 312 7 21 315 276 272 282 305 307 307
250 13 355 346 176 205 238 222 93 109 109 103 7 82 212 183 190 202 231 227 238 227 233 210 182 195 167 154 180 190 196 287 311 315 311 349 340 276 281 297 320 326 318 321
181 344 54 261 250 183 260 42 101 95 98 56 304 115 308 5 293 201 218 239 240 220 201 162 219 120 153 170 190 136 171 278 291 341 331 266 256 281 316 310 311 318 316 312
343 343 301 5 3 24 49 52 2 2 36 86 325 42 250 304 328 267 219 223 221 170 160 180 160 155 174 189 167 172 212 268 293 3 317 250 251 265 262 280 278 310 312 313
65 8 4 337 16 238 47 140 148 218 145 150 351 14 283 278 320 26 73 153 140 176 195 201 168 179 167 183 185 179 225 312 301 301 280 254 243 253 262 275 285 293 262 277
52 49 36 66 47 41 327 19 50 102 57 87 311 345 303 286 270 117 140 150 184 183 188 173 183 157 155 169 172 196 189 241 267 298 308 307 307 270 278 295 275 278 281 299
310 128 5 67 33 10 57 286 23 15 113 116 145 320 281 330 301 197 214 221 203 209 192 198 181 159 169 177 196 198 222 239 275 291 283 317 322 304 277 290 332 261 296 313
33 83 345 49 22 17 353 16 51 108 96 136 152 287 236 125 81 110 237 207 207 208 196 188 181 189 188 186 200 211 245 264 297 291 292 323 319 313 295 323 307 267 307 310
13 99 83 106 43 20 353 346 109 110 119 92 124 276 22 221 124 116 175 213 211 203 180 183 185 185 182 193 190 218 240 263 274 259 314 272 291 287 307 282 266 261 258 276
353 63 102 299 0 349 35 32 41 89 77 12 101 109 2 79 59 357 356 315 201 186 207 220 198 200 196 192 198 225 252 261 266 265 252 257 281 293 276 247 235 256 285 323
77 28 121 138 184 218 50 51 53 88 78 75 109 119 358 347 140 31 43 16 97 168 229 224 205 214 202 202 198 216 248 264 272 276 273 277 268 268 278 255 247 249 273 283
96 85 109 121 101 69 82 70 62 81 144 90 79 79 341 326 42 19 51 50 45 61 56 164 202 208 208 207 216 235 235 239 249 274 279 291 265 246 269 272 249 267 310 294
20 149 70 52 80 75 61 80 61 51 51 71 86 68 345 352 6 39 29 19 11 344 262 183 190 201 210 215 220 227 242 254 267 287 289 295 283 265 259 253 273 242 288 281
93 130 87 266 15 62 32 357 90 76 39 18 43 318 3 16 1 31 28 15 1 360 332 290 213 202 207 212 208 219 228 240 242 274 276 291 290 271 303 241 223 239 262 265
114 86 88 154 40 57 124 98 99 81 48 32 40 13 27 278 287 33 16 17 353 328 347 331 334 351 302 248 225 232 233 232 255 275 276 275 276 266 275 268 158 235 246 256
89 114 83 109 95 125 5 4 323 351 50 17 24 11 12 357 33 12 355 355 328 330 306 314 313 326 297 261 284 249 254 248 254 254 267 273 291 251 261 270 252 227 214 244
47 57 107 102 113 239 326 326 323 132 69 357 25 35 41 36 39 296 332 346 338 340 320 315 299 289 287 284 251 254 262 253 262 264 255 260 271 246 261 268 238 236 215 234
359 17 85 108 112 95 314 321 337 63 291 332 11 84 71 62 213 272 305 333 333 315 317 326 326 321 308 290 248 224 251 246 251 258 264 255 245 250 250 249 249 227 245 249
86 72 23 59 82 186 311 28 82 207 303 349 39 114 177 219 289 302 304 317 313 314 318 316 320 319 315 321 298 275 260 261 245 243 250 261 246 241 250 228 241 259 265 258
33 144 143 120 175 196 334 121 142 146 168 287 243 241 222 286 270 297 311 329 317 309 311 315 319 316 332 332 291 283 272 265 286 276 254 242 258 248 240 239 259 256 257 268
55 119 109 87 80 147 169 153 159 178 201 326 314 294 357 316 320 323 327 323 320 313 312 313 327 331 338 352 13 346 303 306 296 295 295 267 256 256 242 260 238 239 252 250
236 57 129 94 165 49 260 198 188 156 130 128 335 233 240 216 292 265 290 293 299 298 307 320 325 316 320 321 332 336 349 354 356 30 347 316 276 257 252 235 262 239 232 200
355 168 133 194 185 163 250 178 182 184 229 234 243 283 289 230 244 258 287 264 277 283 299 318 317 318 320 317 324 329 332 343 351 47 351 329 333 317 283 260 297 250 259 254